Location: Newark
(48.6461°N, 4.3644°W)
Time: 23:42:41
(UTC+00:00)

A-11 Canister half - Pass Details

Date: 28 January 2020
Orbit: 1517 x 1683 km, 47.2° (Epoch: 19 February)

Event Time Altitude Azimuth Distance (km) Brightness Sun altitude
Exits shadow 01:59:57 13° 91° (E) 3,450 11.0 -54.7°
Drops below altitude 10° 02:00:40 10° 91° (E) 3,682 11.2 -54.6°
Sets 02:03:42 0° 91° (E) 4,670 11.8 -54.3°
